Flag for Canada Weather past 2 weeks in Paradise, Newfoundland and Labrador, Canada

Now
55 °F

Passing clouds.


Feels Like: 54 °F
Forecast: 57 / 71 °F
Wind: 6 mph from Southeast

Location: St. John's

Current Time: Jul 29, 2014 at 2:47:29 AM

Latest Report: Jul 29, 2014 at 1:30 AM


Visibility: 15 mi

Pressure: 30.19 "Hg

Humidity: 94%

Dew point: 54 °F

Location of ParadiseLocation

Historic Weather in Paradise — Graph

°F

Paradise temperature yesterday

Maximum temperature yesterday: 75 °F (at 1:30 PM)
Minimum temperature yesterday: 59 °F (at 5:30 AM)
Average temperature yesterday: 67 °F

Past Weeks' High & Low Weather Summary

 TemperatureHumidityPressure
High84 °F (Jul 21, 2:30 PM)100% (Jul 16, 4:30 AM)30.26 "Hg (Jul 16, 4:30 AM)
Low48 °F (Jul 20, 1:30 AM)27% (Jul 21, 3:30 PM)29.66 "Hg (Jul 26, 2:30 AM)
Average67 °F76%30.00 "Hg
* Reported Jul 14 1:30 AM — Jul 29 1:30 AM, Paradise, Weather by CustomWeather, © 2014

Note: Actual official high and low records may vary slightly from our data, if they occured in-between our weather recording intervals... More about our weather records

Advertising

Paradise weather history for previous 24 hours

 ConditionsComfort  
Time TempWeatherWind HumidityBarometerVisibility
1:30 AM
Jul 29
55 °FPassing clouds.6 mph94%30.19 "Hg15 mi
12:30 AM59 °FPassing clouds.8 mph88%30.19 "Hg15 mi
11:30 PM
Jul 28
59 °FPassing clouds.9 mph82%30.19 "Hg15 mi
10:30 PM61 °FPassing clouds.9 mph77%30.19 "Hg15 mi
9:30 PM63 °FPassing clouds.12 mph73%30.20 "Hg15 mi
8:30 PM64 °FPartly sunny.12 mph73%30.19 "Hg15 mi
7:30 PM70 °FPassing clouds.14 mph57%30.19 "Hg15 mi
6:30 PM73 °FPassing clouds.15 mph47%30.18 "Hg15 mi
5:30 PM73 °FPassing clouds.12 mph47%30.18 "Hg15 mi
4:30 PM73 °FPassing clouds.14 mph50%30.19 "Hg15 mi
3:30 PM75 °FPassing clouds.12 mph44%30.19 "Hg15 mi
2:30 PM75 °FScattered clouds.12 mph47%30.19 "Hg15 mi
1:30 PM75 °FScattered clouds.9 mph47%30.19 "Hg15 mi
12:30 PM72 °FPartly sunny.9 mph57%30.19 "Hg15 mi
11:30 AM73 °FPartly sunny.6 mph57%30.19 "Hg15 mi
10:30 AM73 °FPartly sunny.6 mph61%30.19 "Hg15 mi
9:30 AM73 °FPassing clouds.7 mph61%30.20 "Hg15 mi
8:30 AM66 °FPassing clouds.12 mph78%30.19 "Hg15 mi
7:30 AM64 °FPassing clouds.8 mph83%30.19 "Hg15 mi
6:30 AM61 °FSunny.9 mph88%30.18 "Hg12 mi
5:30 AM59 °FPassing clouds.8 mph88%30.17 "Hg12 mi
4:30 AM61 °FPassing clouds.10 mph88%30.16 "Hg12 mi
3:30 AM61 °FPartly cloudy.10 mph88%30.16 "Hg12 mi
2:30 AM63 °FPassing clouds.13 mph88%30.16 "Hg12 mi
Weather by CustomWeather, © 2014

See weather overviewHow to use our weather pages